Regional Weather Roundup
Issued by NWS

Home | Current Version | Previous Version | Graphics & Text | Print | Product List | Glossary On
Versions: 1 2 3 4 5 6 7 8 9 10 11 12 13 14 15 16 17 18 19 20 21 22 23 24 25 26 27 28 29 30 31 32 33 34 35 36 37 38 39 40 41 42 43 44 45 46 47 48 49 50
000
ASUS43 KOAX 260602
RWRNE

WEATHER ROUNDUP FOR NEBRASKA
NATIONAL WEATHER SERVICE OMAHA NE
100 AM CDT MON JUN 26 2017

NOTES: SATELLITE DATA IS BEING USED TO AUGMENT CLOUD COVER ABOVE
       12000 FEET.
       "FAIR" INDICATES FEW OR NO CLOUDS BELOW 12,000 FEET WITH NO
       SIGNIFICANT WEATHER AND/OR OBSTRUCTIONS TO VISIBILITY.

  * THESE STATIONS DO NOT REPORT WEATHER SUCH AS RAIN...SNOW OR FOG.

NEZ001>004-019>022-054>056-260700-
NEBRASKA PANHANDLE

CITY           SKY/WX    TMP DP  RH WIND       PRES   REMARKS
SCOTTSBLUFF    CLEAR     64  53  67 S10       30.24R
6HR MIN TEMP:  63; 6HR MAX TEMP:  78;

ALLIANCE       CLEAR     58  52  80 S8        30.22S
6HR MIN TEMP:  58; 6HR MAX TEMP:  74;

CHADRON        CLEAR     54  43  66 CALM      30.21S
6HR MIN TEMP:  53; 6HR MAX TEMP:  81;

GORDON         FAIR      54  47  78 CALM      30.22S
6HR MIN TEMP:  53; 6HR MAX TEMP:  75;

KIMBALL        CLEAR     56  55  96 S8        30.30F
SIDNEY         CLEAR     54  52  93 S8        30.28F
6HR MIN TEMP:  54; 6HR MAX TEMP:  72;

$$

NEZ057>060-069>072-079>082-260700-
SOUTHWEST NEBRASKA

CITY           SKY/WX    TMP DP  RH WIND       PRES   REMARKS
NORTH PLATTE   CLEAR     59  53  80 S5        30.24F
6HR MIN TEMP:  57; 6HR MAX TEMP:  76;

IMPERIAL       MOCLDY    57  54  89 S8        30.27F
6HR MIN TEMP:  53; 6HR MAX TEMP:  67;

LEXINGTON      CLEAR     58  52  81 CALM      30.25S
MCCOOK         MOCLDY    58  57  97 S7        30.26S
6HR MIN TEMP:  57; 6HR MAX TEMP:  68;

OGALLALA       CLEAR     57  54  88 SW6       30.25F
$$

NEZ005>010-023>029-035>040-094-260700-
NORTH CENTRAL NEBRASKA

CITY           SKY/WX    TMP DP  RH WIND       PRES   REMARKS
VALENTINE      MOCLDY    63  47  55 CALM      30.18R
6HR MIN TEMP:  62; 6HR MAX TEMP:  79; 6HR PCP:  0.01;

AINSWORTH      CLEAR     62  53  72 SW12      30.19S
BROKEN BOW     CLOUDY    60  50  69 S3        30.23S
6HR MIN TEMP:  60; 6HR MAX TEMP:  76;

O`NEILL        PTCLDY    61  49  63 SW9       30.19S
ORD            CLOUDY    62  47  57 SW8       30.20R
6HR MIN TEMP:  58; 6HR MAX TEMP:  76;

THEDFORD       CLOUDY    60  54  80 CALM      30.24S
$$

NEZ041-046>049-061>064-073>077-083>087-260700-
SOUTH CENTRAL NEBRASKA

CITY           SKY/WX    TMP DP  RH WIND       PRES   REMARKS
GRAND ISLAND   PTCLDY    62  50  64 SW10      30.23R
6HR MIN TEMP:  59; 6HR MAX TEMP:  76;

AURORA         PTCLDY    57  49  76 SW6       30.23S
HASTINGS       CLEAR     60  48  64 SW8       30.24F
6HR MIN TEMP:  60; 6HR MAX TEMP:  74;

HEBRON         CLEAR     58  53  82 SW5       30.24R
HOLDREGE       CLEAR     57  53  88 SW7       30.25R
KEARNEY *      CLEAR     59  48  67 S10       30.24S
YORK           MOCLDY    57  48  72 SW7       30.23R
$$

NEZ011>018-030>034-042>045-260700-
NORTHEAST NEBRASKA

CITY           SKY/WX    TMP DP  RH WIND       PRES   REMARKS
NORFOLK        PTCLDY    60  43  53 S10       30.17F
6HR MIN TEMP:  57; 6HR MAX TEMP:  75;

ALBION         MOCLDY    58  47  67 SW5       30.20F
BLAIR          CLEAR     59  46  60 S3        30.19S
FREMONT        CLEAR     64  44  47 S9        30.19S
TEKAMAH        CLEAR     52  38  58 S7        30.17F
6HR MIN TEMP:  52; 6HR MAX TEMP:  76;

WAYNE          MOCLDY    58  44  60 SW5       30.17R
$$

NEZ050>053-065>068-078-088>093-260700-
SOUTHEAST NEBRASKA

CITY           SKY/WX    TMP DP  RH WIND       PRES   REMARKS
LINCOLN        CLEAR     62  50  64 W3        30.22R
6HR MIN TEMP:  58; 6HR MAX TEMP:  78;

OMAHA EPPLEY   CLEAR     59  48  67 S8        30.18F
6HR MIN TEMP:  59; 6HR MAX TEMP:  76;

BEATRICE       PTCLDY    57  51  80 S5        30.22F
FALLS CITY     CLEAR     54  51  90 S3        30.22R
6HR MIN TEMP:  54; 6HR MAX TEMP:  75;

NEBRASKA CITY  PTCLDY    59  51  73 SW8       30.22S
PLATTSMOUTH    MOCLDY    60  47  62 S7        30.20S
$$

NEZ044-045-051>053-067-260700-
OMAHA AREA

CITY           SKY/WX    TMP DP  RH WIND       PRES   REMARKS
OMAHA EPPLEY   CLEAR     59  48  67 S8        30.18F
6HR MIN TEMP:  59; 6HR MAX TEMP:  76;

BLAIR          CLEAR     59  46  60 S3        30.19S
FREMONT        CLEAR     64  44  47 S9        30.19S
MILLARD        CLEAR     65  48  55 CALM      30.19S
OFFUTT AFB     CLEAR     56  49  78 S3        30.19S
PLATTSMOUTH    MOCLDY    60  47  62 S7        30.20S
WAHOO          FAIR      58  45  60 S5        30.19F
$$



USA.gov is the U.S. government's official web portal to all federal, state and local government web resources and services.